Time,TemperatureF,DewpointF,PressureIn,WindDirection,WindDirectionDegrees,WindSpeedMPH,WindSpeedGustMPH,Humidity,HourlyPrecipIn,Conditions,Clouds,dailyrainin,SoftwareType,DateUTC
2013-02-01 00:00:00,39.6,28.1,30.08,SW,231,7.0,8.0,63,0.00,,---,0.00,VWS V14.00,2013-02-01 05:00:00,
2013-02-01 00:01:00,39.7,27.8,30.08,SW,235,6.0,8.0,62,0.00,,---,0.00,VWS V14.00,2013-02-01 05:01:00,
2013-02-01 00:06:00,40.2,27.8,30.08,SW,232,5.0,9.0,61,0.00,,---,0.00,VWS V14.00,2013-02-01 05:06:00,
2013-02-01 00:11:00,40.3,27.9,30.08,WSW,237,4.0,9.0,61,0.00,,---,0.00,VWS V14.00,2013-02-01 05:11:00,
2013-02-01 00:16:00,40.4,28.0,30.08,WSW,241,5.0,9.0,61,0.00,,---,0.00,VWS V14.00,2013-02-01 05:16:00,
2013-02-01 00:21:00,40.7,27.9,30.09,WSW,237,6.0,9.0,60,0.00,,---,0.00,VWS V14.00,2013-02-01 05:21:00,
2013-02-01 00:26:00,41.1,27.9,30.09,WSW,238,8.0,13.0,59,0.00,,---,0.00,VWS V14.00,2013-02-01 05:26:00,
2013-02-01 00:31:00,41.5,28.3,30.09,SW,235,10.0,12.0,59,0.00,,---,0.00,VWS V14.00,2013-02-01 05:31:00,
2013-02-01 00:36:00,41.9,27.8,30.09,WSW,243,8.0,12.0,57,0.00,,---,0.00,VWS V14.00,2013-02-01 05:36:00,
2013-02-01 00:41:00,42.2,28.1,30.09,WSW,243,12.0,14.0,57,0.00,,---,0.00,VWS V14.00,2013-02-01 05:41:00,
2013-02-01 00:46:00,42.4,27.8,30.10,WSW,239,10.0,14.0,56,0.00,,---,0.00,VWS V14.00,2013-02-01 05:46:00,
2013-02-01 00:51:00,42.1,28.0,30.09,WSW,237,10.0,14.0,57,0.00,,---,0.00,VWS V14.00,2013-02-01 05:51:00,
2013-02-01 00:56:00,42.3,27.7,30.09,WSW,241,6.0,14.0,56,0.00,,---,0.00,VWS V14.00,2013-02-01 05:56:00,
2013-02-01 01:01:00,42.5,27.9,30.09,WSW,249,10.0,14.0,56,0.00,,---,0.00,VWS V14.00,2013-02-01 06:01:00,
2013-02-01 01:06:00,42.5,27.9,30.09,WSW,238,9.0,14.0,56,0.00,,---,0.00,VWS V14.00,2013-02-01 06:06:00,
2013-02-01 01:11:00,42.5,27.5,30.09,WSW,245,7.0,16.0,55,0.00,,---,0.00,VWS V14.00,2013-02-01 06:11:00,
2013-02-01 01:16:00,42.4,27.8,30.09,SW,236,6.0,16.0,56,0.00,,---,0.00,VWS V14.00,2013-02-01 06:16:00,
2013-02-01 01:21:00,42.2,27.6,30.09,SW,233,11.0,16.0,56,0.00,,---,0.00,VWS V14.00,2013-02-01 06:21:00,
2013-02-01 01:26:00,42.0,27.9,30.09,WSW,245,6.0,16.0,57,0.00,,---,0.00,VWS V14.00,2013-02-01 06:26:00,
2013-02-01 01:31:00,41.9,27.4,30.10,WSW,238,10.0,14.0,56,0.00,,---,0.00,VWS V14.00,2013-02-01 06:31:00,
2013-02-01 01:36:00,41.9,27.8,30.10,WSW,245,11.0,14.0,57,0.00,,---,0.00,VWS V14.00,2013-02-01 06:36:00,
2013-02-01 01:41:00,42.1,28.0,30.10,WSW,241,10.0,14.0,57,0.00,,---,0.00,VWS V14.00,2013-02-01 06:41:00,
2013-02-01 01:46:00,42.0,27.5,30.10,WSW,243,5.0,14.0,56,0.00,,---,0.00,VWS V14.00,2013-02-01 06:46:00,
2013-02-01 01:51:00,41.9,27.8,30.09,WSW,244,9.0,14.0,57,0.00,,---,0.00,VWS V14.00,2013-02-01 06:51:00,
2013-02-01 01:56:00,42.0,27.5,30.09,WSW,255,10.0,14.0,56,0.00,,---,0.00,VWS V14.00,2013-02-01 06:56:00,
2013-02-01 02:01:00,41.9,27.8,30.09,WSW,237,6.0,11.0,57,0.00,,---,0.00,VWS V14.00,2013-02-01 07:01:00,
2013-02-01 02:06:00,41.9,27.8,30.09,SW,220,5.0,12.0,57,0.00,,---,0.00,VWS V14.00,2013-02-01 07:06:00,
2013-02-01 02:11:00,41.6,27.5,30.09,SW,233,9.0,12.0,57,0.00,,---,0.00,VWS V14.00,2013-02-01 07:11:00,
2013-02-01 02:16:00,41.6,27.5,30.08,WSW,245,5.0,12.0,57,0.00,,---,0.00,VWS V14.00,2013-02-01 07:16:00,
2013-02-01 02:21:00,41.5,27.4,30.08,SW,231,6.0,12.0,57,0.00,,---,0.00,VWS V14.00,2013-02-01 07:21:00,
2013-02-01 02:26:00,41.1,27.5,30.08,SW,229,6.0,12.0,58,0.00,,---,0.00,VWS V14.00,2013-02-01 07:26:00,
2013-02-01 02:31:00,40.9,27.7,30.07,WSW,240,8.0,9.0,59,0.00,,---,0.00,VWS V14.00,2013-02-01 07:31:00,
2013-02-01 02:36:00,41.1,27.5,30.07,WSW,240,7.0,9.0,58,0.00,,---,0.00,VWS V14.00,2013-02-01 07:36:00,
2013-02-01 02:41:00,40.9,27.7,30.07,SW,236,5.0,11.0,59,0.00,,---,0.00,VWS V14.00,2013-02-01 07:41:00,
2013-02-01 02:46:00,40.6,27.8,30.07,SW,234,4.0,11.0,60,0.00,,---,0.00,VWS V14.00,2013-02-01 07:46:00,
2013-02-01 02:51:00,40.5,27.3,30.07,SW,227,8.0,11.0,59,0.00,,---,0.00,VWS V14.00,2013-02-01 07:51:00,
2013-02-01 02:56:00,40.4,27.6,30.07,SW,229,5.0,11.0,60,0.00,,---,0.00,VWS V14.00,2013-02-01 07:56:00,
2013-02-01 03:01:00,40.5,27.7,30.07,SW,225,5.0,10.0,60,0.00,,---,0.00,VWS V14.00,2013-02-01 08:01:00,
2013-02-01 03:06:00,40.4,27.6,30.07,WSW,244,8.0,12.0,60,0.00,,---,0.00,VWS V14.00,2013-02-01 08:06:00,
2013-02-01 03:11:00,40.4,27.6,30.07,WSW,238,8.0,12.0,60,0.00,,---,0.00,VWS V14.00,2013-02-01 08:11:00,
2013-02-01 03:16:00,40.5,27.7,30.07,WSW,251,6.0,12.0,60,0.00,,---,0.00,VWS V14.00,2013-02-01 08:16:00,
2013-02-01 03:21:00,40.7,27.9,30.07,SW,227,6.0,12.0,60,0.00,,---,0.00,VWS V14.00,2013-02-01 08:21:00,
2013-02-01 03:26:00,40.6,27.8,30.07,WSW,247,9.0,12.0,60,0.00,,---,0.00,VWS V14.00,2013-02-01 08:26:00,
2013-02-01 03:31:00,40.6,27.8,30.07,SW,231,7.0,11.0,60,0.00,,---,0.00,VWS V14.00,2013-02-01 08:31:00,
2013-02-01 03:36:00,40.6,27.8,30.07,SW,226,7.0,11.0,60,0.00,,---,0.00,VWS V14.00,2013-02-01 08:36:00,
2013-02-01 03:41:00,40.5,27.7,30.07,SW,235,6.0,11.0,60,0.00,,---,0.00,VWS V14.00,2013-02-01 08:41:00,
2013-02-01 03:46:00,40.4,27.6,30.07,SW,233,5.0,12.0,60,0.00,,---,0.00,VWS V14.00,2013-02-01 08:46:00,
2013-02-01 03:51:00,40.4,27.6,30.07,WSW,249,8.0,12.0,60,0.00,,---,0.00,VWS V14.00,2013-02-01 08:51:00,
2013-02-01 03:56:00,40.3,27.9,30.07,SW,231,9.0,12.0,61,0.00,,---,0.00,VWS V14.00,2013-02-01 08:56:00,
2013-02-01 04:01:00,40.4,27.6,30.07,SW,230,6.0,12.0,60,0.00,,---,0.00,VWS V14.00,2013-02-01 09:01:00,
2013-02-01 04:06:00,40.3,27.5,30.06,WSW,237,10.0,12.0,60,0.00,,---,0.00,VWS V14.00,2013-02-01 09:06:00,
2013-02-01 04:11:00,40.4,27.6,30.06,WSW,247,9.0,13.0,60,0.00,,---,0.00,VWS V14.00,2013-02-01 09:11:00,
2013-02-01 04:16:00,40.4,27.6,30.07,SW,235,8.0,13.0,60,0.00,,---,0.00,VWS V14.00,2013-02-01 09:16:00,
2013-02-01 04:21:00,40.2,27.8,30.07,SW,231,9.0,13.0,61,0.00,,---,0.00,VWS V14.00,2013-02-01 09:21:00,
2013-02-01 04:26:00,40.2,27.8,30.08,WSW,237,11.0,13.0,61,0.00,,---,0.00,VWS V14.00,2013-02-01 09:26:00,
2013-02-01 04:31:00,40.3,27.9,30.07,WSW,240,7.0,13.0,61,0.00,,---,0.00,VWS V14.00,2013-02-01 09:31:00,
2013-02-01 04:36:00,40.3,27.9,30.07,SW,226,4.0,13.0,61,0.00,,---,0.00,VWS V14.00,2013-02-01 09:36:00,
2013-02-01 04:41:00,40.1,27.8,30.07,WSW,240,10.0,13.0,61,0.00,,---,0.00,VWS V14.00,2013-02-01 09:41:00,
2013-02-01 04:46:00,40.3,27.9,30.07,SW,222,7.0,13.0,61,0.00,,---,0.00,VWS V14.00,2013-02-01 09:46:00,
2013-02-01 04:51:00,40.5,27.7,30.06,SW,224,11.0,13.0,60,0.00,,---,0.00,VWS V14.00,2013-02-01 09:51:00,
2013-02-01 04:56:00,40.6,27.8,30.06,SW,235,7.0,13.0,60,0.00,,---,0.00,VWS V14.00,2013-02-01 09:56:00,
2013-02-01 05:01:00,40.6,27.8,30.07,WSW,245,10.0,12.0,60,0.00,,---,0.00,VWS V14.00,2013-02-01 10:01:00,
2013-02-01 05:07:00,40.8,27.6,30.06,SW,236,8.0,14.0,59,0.00,,---,0.00,VWS V14.00,2013-02-01 10:07:00,
2013-02-01 05:12:00,40.8,27.6,30.06,WSW,240,8.0,14.0,59,0.00,,---,0.00,VWS V14.00,2013-02-01 10:12:00,
2013-02-01 05:17:00,40.7,27.9,30.06,SW,233,6.0,14.0,60,0.00,,---,0.00,VWS V14.00,2013-02-01 10:17:00,
2013-02-01 05:22:00,40.7,27.9,30.06,SW,231,12.0,14.0,60,0.00,,---,0.00,VWS V14.00,2013-02-01 10:22:00,
2013-02-01 05:27:00,40.7,27.9,30.06,SW,230,7.0,14.0,60,0.00,,---,0.00,VWS V14.00,2013-02-01 10:27:00,
2013-02-01 05:32:00,40.6,27.8,30.06,WSW,237,9.0,13.0,60,0.00,,---,0.00,VWS V14.00,2013-02-01 10:32:00,
2013-02-01 05:37:00,40.6,27.4,30.06,SW,219,10.0,13.0,59,0.00,,---,0.00,VWS V14.00,2013-02-01 10:37:00,
2013-02-01 05:42:00,40.9,27.7,30.06,SW,221,8.0,15.0,59,0.00,,---,0.00,VWS V14.00,2013-02-01 10:42:00,
2013-02-01 05:46:00,40.9,27.7,30.06,SW,233,9.0,15.0,59,0.00,,---,0.00,VWS V14.00,2013-02-01 10:46:00,
2013-02-01 05:51:00,40.9,27.7,30.06,WSW,244,11.0,15.0,59,0.00,,---,0.00,VWS V14.00,2013-02-01 10:51:00,
2013-02-01 05:56:00,41.1,27.5,30.06,SW,233,11.0,15.0,58,0.00,,---,0.00,VWS V14.00,2013-02-01 10:56:00,
2013-02-01 06:01:00,41.2,27.6,30.06,SW,216,6.0,12.0,58,0.00,,---,0.00,VWS V14.00,2013-02-01 11:01:00,
2013-02-01 06:06:00,41.5,27.8,30.06,SW,214,10.0,14.0,58,0.00,,---,0.00,VWS V14.00,2013-02-01 11:06:00,
2013-02-01 06:12:00,41.5,27.8,30.05,SW,216,8.0,17.0,58,0.00,,---,0.00,VWS V14.00,2013-02-01 11:12:00,
2013-02-01 06:17:00,41.7,27.6,30.05,SW,221,9.0,17.0,57,0.00,,---,0.00,VWS V14.00,2013-02-01 11:17:00,
2013-02-01 06:22:00,41.9,27.8,30.05,SW,215,15.0,17.0,57,0.00,,---,0.00,VWS V14.00,2013-02-01 11:22:00,
2013-02-01 06:27:00,42.1,27.5,30.05,SW,223,7.0,17.0,56,0.00,,---,0.00,VWS V14.00,2013-02-01 11:27:00,
2013-02-01 06:32:00,42.0,27.5,30.05,SW,220,12.0,17.0,56,0.00,,---,0.00,VWS V14.00,2013-02-01 11:32:00,
2013-02-01 06:37:00,42.3,27.7,30.05,SW,216,12.0,17.0,56,0.00,,---,0.00,VWS V14.00,2013-02-01 11:37:00,
2013-02-01 06:42:00,42.4,27.4,30.04,SSW,202,12.0,18.0,55,0.00,,---,0.00,VWS V14.00,2013-02-01 11:42:00,
2013-02-01 06:47:00,43.0,27.5,30.04,SW,227,11.0,19.0,54,0.00,,---,0.00,VWS V14.00,2013-02-01 11:47:00,
2013-02-01 06:52:00,43.1,27.6,30.04,SW,220,15.0,19.0,54,0.00,,---,0.00,VWS V14.00,2013-02-01 11:52:00,
2013-02-01 06:57:00,43.1,28.0,30.05,SW,233,10.0,19.0,55,0.00,,---,0.00,VWS V14.00,2013-02-01 11:57:00,
2013-02-01 07:02:00,43.1,28.0,30.05,SW,233,10.0,17.0,55,0.00,,---,0.00,VWS V14.00,2013-02-01 12:02:00,
2013-02-01 07:07:00,43.0,28.0,30.04,WSW,241,11.0,17.0,55,0.00,,---,0.00,VWS V14.00,2013-02-01 12:07:00,
2013-02-01 07:12:00,43.1,28.0,30.04,WSW,237,9.0,21.0,55,0.00,,---,0.00,VWS V14.00,2013-02-01 12:12:00,
2013-02-01 07:17:00,43.3,27.8,30.04,WSW,237,13.0,21.0,54,0.00,,---,0.00,VWS V14.00,2013-02-01 12:17:00,
2013-02-01 07:22:00,43.3,27.8,30.04,SW,232,12.0,21.0,54,0.00,,---,0.00,VWS V14.00,2013-02-01 12:22:00,
2013-02-01 07:27:00,43.6,27.6,30.04,WSW,258,10.0,21.0,53,0.00,,---,0.00,VWS V14.00,2013-02-01 12:27:00,
2013-02-01 07:32:00,43.6,28.1,30.04,WSW,249,8.0,20.0,54,0.00,,---,0.00,VWS V14.00,2013-02-01 12:32:00,
2013-02-01 07:37:00,43.7,28.2,30.04,SW,223,14.0,20.0,54,0.00,,---,0.00,VWS V14.00,2013-02-01 12:37:00,
2013-02-01 07:42:00,44.2,28.2,30.04,SW,227,12.0,21.0,53,0.00,,---,0.00,VWS V14.00,2013-02-01 12:42:00,
2013-02-01 07:47:00,44.6,28.1,30.04,WSW,243,9.0,23.0,52,0.00,,---,0.00,VWS V14.00,2013-02-01 12:47:00,
2013-02-01 07:52:00,45.0,28.5,30.04,SW,230,19.0,23.0,52,0.00,,---,0.00,VWS V14.00,2013-02-01 12:52:00,
2013-02-01 07:57:00,45.4,28.4,30.04,WSW,242,18.0,23.0,51,0.00,,---,0.00,VWS V14.00,2013-02-01 12:57:00,
2013-02-01 08:02:00,45.8,28.7,30.04,SW,219,18.0,21.0,51,0.00,,---,0.00,VWS V14.00,2013-02-01 13:02:00,
2013-02-01 08:07:00,46.1,29.0,30.04,SW,228,15.0,25.0,51,0.00,,---,0.00,VWS V14.00,2013-02-01 13:07:00,
2013-02-01 08:12:00,46.5,28.9,30.05,SW,233,14.0,27.0,50,0.00,,---,0.00,VWS V14.00,2013-02-01 13:12:00,
2013-02-01 08:17:00,46.8,28.7,30.05,SW,232,21.0,28.0,49,0.00,,---,0.00,VWS V14.00,2013-02-01 13:17:00,
2013-02-01 08:22:00,47.0,28.9,30.04,WSW,251,25.0,28.0,49,0.00,,---,0.00,VWS V14.00,2013-02-01 13:22:00,
2013-02-01 08:27:00,47.3,29.1,30.05,WSW,254,12.0,28.0,49,0.00,,---,0.00,VWS V14.00,2013-02-01 13:27:00,
2013-02-01 08:32:00,47.5,29.3,30.05,SW,235,15.0,23.0,49,0.00,,---,0.00,VWS V14.00,2013-02-01 13:32:00,
2013-02-01 08:37:00,47.8,29.1,30.05,WSW,249,21.0,28.0,48,0.00,,---,0.00,VWS V14.00,2013-02-01 13:37:00,
2013-02-01 08:42:00,48.1,28.8,30.05,WSW,248,25.0,33.0,47,0.00,,---,0.00,VWS V14.00,2013-02-01 13:42:00,
2013-02-01 08:47:00,48.3,29.5,30.05,WSW,245,13.0,33.0,48,0.00,,---,0.00,VWS V14.00,2013-02-01 13:47:00,
2013-02-01 08:52:00,48.6,29.3,30.05,SW,218,7.0,33.0,47,0.00,,---,0.00,VWS V14.00,2013-02-01 13:52:00,
2013-02-01 08:57:00,49.0,30.2,30.06,WSW,256,16.0,33.0,48,0.00,,---,0.00,VWS V14.00,2013-02-01 13:57:00,
2013-02-01 09:02:00,49.2,30.4,30.06,WSW,244,17.0,28.0,48,0.00,,---,0.00,VWS V14.00,2013-02-01 14:02:00,
2013-02-01 09:07:00,49.4,30.0,30.06,West,262,14.0,28.0,47,0.00,,---,0.00,VWS V14.00,2013-02-01 14:07:00,
2013-02-01 09:12:00,49.6,30.7,30.06,WSW,255,12.0,28.0,48,0.00,,---,0.00,VWS V14.00,2013-02-01 14:12:00,
2013-02-01 09:17:00,49.7,30.3,30.06,WSW,239,19.0,28.0,47,0.00,,---,0.00,VWS V14.00,2013-02-01 14:17:00,
2013-02-01 09:22:00,50.0,30.6,30.06,WSW,251,11.0,28.0,47,0.00,,---,0.00,VWS V14.00,2013-02-01 14:22:00,
2013-02-01 09:27:00,50.4,31.5,30.06,West,261,16.0,28.0,48,0.00,,---,0.00,VWS V14.00,2013-02-01 14:27:00,
2013-02-01 09:32:00,50.5,30.5,30.07,West,261,21.0,27.0,46,0.00,,---,0.00,VWS V14.00,2013-02-01 14:32:00,
2013-02-01 09:37:00,50.6,30.6,30.07,WSW,257,16.0,27.0,46,0.00,,---,0.00,VWS V14.00,2013-02-01 14:37:00,
2013-02-01 09:42:00,50.6,30.6,30.07,WSW,255,14.0,28.0,46,0.00,,---,0.00,VWS V14.00,2013-02-01 14:42:00,
2013-02-01 09:47:00,50.9,30.9,30.07,West,270,16.0,28.0,46,0.00,,---,0.00,VWS V14.00,2013-02-01 14:47:00,
2013-02-01 09:52:00,51.2,32.2,30.07,WSW,253,12.0,28.0,48,0.00,,---,0.00,VWS V14.00,2013-02-01 14:52:00,
2013-02-01 09:57:00,51.3,31.2,30.07,WSW,256,20.0,30.0,46,0.00,,---,0.00,VWS V14.00,2013-02-01 14:57:00,
2013-02-01 10:02:00,51.8,32.8,30.07,WSW,256,20.0,24.0,48,0.00,,---,0.00,VWS V14.00,2013-02-01 15:02:00,
2013-02-01 10:07:00,52.2,31.5,30.07,WNW,288,16.0,33.0,45,0.00,,---,0.00,VWS V14.00,2013-02-01 15:07:00,
2013-02-01 10:12:00,52.4,31.1,30.08,West,270,22.0,33.0,44,0.00,,---,0.00,VWS V14.00,2013-02-01 15:12:00,
2013-02-01 10:17:00,52.1,31.4,30.08,WSW,245,16.0,33.0,45,0.00,,---,0.00,VWS V14.00,2013-02-01 15:17:00,
2013-02-01 10:22:00,52.2,31.0,30.08,West,271,17.0,34.0,44,0.00,,---,0.00,VWS V14.00,2013-02-01 15:22:00,
2013-02-01 10:27:00,52.1,31.4,30.09,WNW,282,17.0,34.0,45,0.00,,---,0.00,VWS V14.00,2013-02-01 15:27:00,
2013-02-01 10:32:00,52.1,32.0,30.09,WSW,253,19.0,27.0,46,0.00,,---,0.00,VWS V14.00,2013-02-01 15:32:00,
2013-02-01 10:37:00,51.9,30.7,30.09,West,280,14.0,29.0,44,0.00,,---,0.00,VWS V14.00,2013-02-01 15:37:00,
2013-02-01 10:42:00,52.4,32.2,30.09,West,274,14.0,31.0,46,0.00,,---,0.00,VWS V14.00,2013-02-01 15:42:00,
2013-02-01 10:47:00,52.7,31.4,30.09,WNW,282,16.0,31.0,44,0.00,,---,0.00,VWS V14.00,2013-02-01 15:47:00,
2013-02-01 10:52:00,52.6,32.4,30.09,WNW,283,16.0,31.0,46,0.00,,---,0.00,VWS V14.00,2013-02-01 15:52:00,
2013-02-01 10:57:00,52.8,31.5,30.09,NNW,335,20.0,31.0,44,0.00,,---,0.00,VWS V14.00,2013-02-01 15:57:00,
2013-02-01 11:02:00,52.3,31.0,30.09,West,275,25.0,25.0,44,0.00,,---,0.00,VWS V14.00,2013-02-01 16:02:00,
2013-02-01 11:07:00,51.2,31.1,30.10,NW,316,17.0,26.0,46,0.00,,---,0.00,VWS V14.00,2013-02-01 16:07:00,
2013-02-01 11:12:00,51.8,31.7,30.10,WNW,302,14.0,28.0,46,0.00,,---,0.00,VWS V14.00,2013-02-01 16:12:00,
2013-02-01 11:17:00,51.6,31.0,30.10,NW,314,17.0,30.0,45,0.00,,---,0.00,VWS V14.00,2013-02-01 16:17:00,
2013-02-01 11:22:00,51.2,30.6,30.10,WNW,286,17.0,30.0,45,0.00,,---,0.00,VWS V14.00,2013-02-01 16:22:00,
2013-02-01 11:27:00,51.4,31.9,30.11,NW,306,17.0,30.0,47,0.00,,---,0.00,VWS V14.00,2013-02-01 16:27:00,
2013-02-01 11:32:00,51.2,31.1,30.11,West,281,14.0,29.0,46,0.00,,---,0.00,VWS V14.00,2013-02-01 16:32:00,
2013-02-01 11:37:00,51.8,31.7,30.11,WNW,301,17.0,29.0,46,0.00,,---,0.00,VWS V14.00,2013-02-01 16:37:00,
2013-02-01 11:42:00,51.8,31.1,30.11,NW,320,16.0,29.0,45,0.00,,---,0.00,VWS V14.00,2013-02-01 16:42:00,
2013-02-01 11:47:00,50.5,31.0,30.12,WNW,291,15.0,29.0,47,0.00,,---,0.00,VWS V14.00,2013-02-01 16:47:00,
2013-02-01 11:52:00,49.8,31.4,30.12,NW,314,12.0,29.0,49,0.00,,---,0.00,VWS V14.00,2013-02-01 16:52:00,
2013-02-01 11:57:00,49.1,30.3,30.12,North,0,13.0,29.0,48,0.00,,---,0.00,VWS V14.00,2013-02-01 16:57:00,
2013-02-01 12:02:00,48.7,30.9,30.13,NNW,335,15.0,22.0,50,0.00,,---,0.00,VWS V14.00,2013-02-01 17:02:00,
2013-02-01 12:07:00,48.6,30.8,30.13,NW,311,17.0,27.0,50,0.00,,---,0.00,VWS V14.00,2013-02-01 17:07:00,
2013-02-01 12:12:00,48.4,30.1,30.14,WNW,296,11.0,27.0,49,0.00,,---,0.00,VWS V14.00,2013-02-01 17:12:00,
2013-02-01 12:17:00,48.5,29.7,30.14,NNW,335,10.0,27.0,48,0.00,,---,0.00,VWS V14.00,2013-02-01 17:17:00,
2013-02-01 12:22:00,48.7,29.9,30.14,NW,325,14.0,27.0,48,0.00,,---,0.00,VWS V14.00,2013-02-01 17:22:00,
2013-02-01 12:27:00,48.8,29.5,30.14,NNW,330,21.0,27.0,47,0.00,,---,0.00,VWS V14.00,2013-02-01 17:27:00,
2013-02-01 12:32:00,49.3,29.4,30.15,NW,306,9.0,20.0,46,0.00,,---,0.00,VWS V14.00,2013-02-01 17:32:00,
2013-02-01 12:37:00,49.0,27.5,30.15,NNW,330,12.0,26.0,43,0.00,,---,0.00,VWS V14.00,2013-02-01 17:37:00,
2013-02-01 12:42:00,48.6,24.8,30.15,WNW,298,12.0,26.0,39,0.00,,---,0.00,VWS V14.00,2013-02-01 17:42:00,
2013-02-01 12:47:00,47.7,23.4,30.15,NW,308,16.0,26.0,38,0.00,,---,0.00,VWS V14.00,2013-02-01 17:47:00,
2013-02-01 12:52:00,47.3,21.7,30.16,WNW,290,16.0,26.0,36,0.00,,---,0.00,VWS V14.00,2013-02-01 17:52:00,
2013-02-01 12:57:00,46.8,20.6,30.15,WNW,282,13.0,26.0,35,0.00,,---,0.00,VWS V14.00,2013-02-01 17:57:00,
2013-02-01 13:02:00,46.4,19.6,30.16,NW,325,11.0,20.0,34,0.00,,---,0.00,VWS V14.00,2013-02-01 18:02:00,
2013-02-01 13:07:00,46.8,20.6,30.15,WNW,283,11.0,20.0,35,0.00,,---,0.00,VWS V14.00,2013-02-01 18:07:00,
2013-02-01 13:12:00,46.9,19.3,30.16,West,280,15.0,20.0,33,0.00,,---,0.00,VWS V14.00,2013-02-01 18:12:00,
2013-02-01 13:17:00,46.6,21.1,30.16,NNW,343,15.0,21.0,36,0.00,,---,0.00,VWS V14.00,2013-02-01 18:17:00,
2013-02-01 13:22:00,46.9,20.7,30.16,NNW,342,16.0,21.0,35,0.00,,---,0.00,VWS V14.00,2013-02-01 18:22:00,
2013-02-01 13:27:00,47.4,21.1,30.16,NW,321,16.0,21.0,35,0.00,,---,0.00,VWS V14.00,2013-02-01 18:27:00,
2013-02-01 13:32:00,47.6,20.6,30.16,WNW,289,11.0,18.0,34,0.00,,---,0.00,VWS V14.00,2013-02-01 18:32:00,
2013-02-01 13:37:00,47.9,20.9,30.16,NW,316,8.0,18.0,34,0.00,,---,0.00,VWS V14.00,2013-02-01 18:37:00,
2013-02-01 13:42:00,47.9,20.9,30.16,NNW,344,10.0,28.0,34,0.00,,---,0.00,VWS V14.00,2013-02-01 18:42:00,
2013-02-01 13:47:00,47.6,19.9,30.16,NNW,335,11.0,28.0,33,0.00,,---,0.00,VWS V14.00,2013-02-01 18:47:00,
2013-02-01 13:52:00,47.8,19.4,30.16,NW,316,17.0,28.0,32,0.00,,---,0.00,VWS V14.00,2013-02-01 18:52:00,
2013-02-01 13:57:00,47.6,17.7,30.17,NW,308,15.0,28.0,30,0.00,,---,0.00,VWS V14.00,2013-02-01 18:57:00,
2013-02-01 14:02:00,47.5,17.6,30.17,NNW,340,12.0,19.0,30,0.00,,---,0.00,VWS V14.00,2013-02-01 19:02:00,
2013-02-01 14:07:00,47.1,17.3,30.17,NW,315,18.0,23.0,30,0.00,,---,0.00,VWS V14.00,2013-02-01 19:07:00,
2013-02-01 14:12:00,47.2,16.6,30.17,NW,308,7.0,23.0,29,0.00,,---,0.00,VWS V14.00,2013-02-01 19:12:00,
2013-02-01 14:17:00,47.5,14.3,30.17,WNW,303,11.0,23.0,26,0.00,,---,0.00,VWS V14.00,2013-02-01 19:17:00,
2013-02-01 14:22:00,47.2,14.1,30.17,WNW,299,18.0,26.0,26,0.00,,---,0.00,VWS V14.00,2013-02-01 19:22:00,
2013-02-01 14:27:00,47.0,13.9,30.17,North,4,10.0,26.0,26,0.00,,---,0.00,VWS V14.00,2013-02-01 19:27:00,
2013-02-01 14:32:00,46.9,12.9,30.18,WNW,294,16.0,21.0,25,0.00,,---,0.00,VWS V14.00,2013-02-01 19:32:00,
2013-02-01 14:37:00,46.9,12.9,30.18,NW,308,11.0,21.0,25,0.00,,---,0.00,VWS V14.00,2013-02-01 19:37:00,
2013-02-01 14:42:00,46.5,12.6,30.17,NW,306,13.0,21.0,25,0.00,,---,0.00,VWS V14.00,2013-02-01 19:42:00,
2013-02-01 14:47:00,46.5,12.6,30.18,NW,325,15.0,21.0,25,0.00,,---,0.00,VWS V14.00,2013-02-01 19:47:00,
2013-02-01 14:52:00,46.5,12.6,30.18,NW,321,14.0,21.0,25,0.00,,---,0.00,VWS V14.00,2013-02-01 19:52:00,
2013-02-01 14:57:00,46.2,11.4,30.18,NNW,347,11.0,21.0,24,0.00,,---,0.00,VWS V14.00,2013-02-01 19:57:00,
2013-02-01 15:02:00,46.1,11.3,30.19,NNW,335,10.0,21.0,24,0.00,,---,0.00,VWS V14.00,2013-02-01 20:02:00,
2013-02-01 15:07:00,46.0,11.2,30.19,NW,325,11.0,21.0,24,0.00,,---,0.00,VWS V14.00,2013-02-01 20:07:00,
2013-02-01 15:12:00,45.6,9.0,30.19,NNW,335,11.0,21.0,22,0.00,,---,0.00,VWS V14.00,2013-02-01 20:12:00,
2013-02-01 15:17:00,45.6,9.0,30.19,NNW,346,10.0,21.0,22,0.00,,---,0.00,VWS V14.00,2013-02-01 20:17:00,
2013-02-01 15:22:00,45.6,9.9,30.20,NNW,344,10.0,21.0,23,0.00,,---,0.00,VWS V14.00,2013-02-01 20:22:00,
2013-02-01 15:27:00,45.6,9.9,30.20,NNW,343,12.0,22.0,23,0.00,,---,0.00,VWS V14.00,2013-02-01 20:27:00,
2013-02-01 15:32:00,45.3,9.7,30.20,NW,311,14.0,18.0,23,0.00,,---,0.00,VWS V14.00,2013-02-01 20:32:00,
2013-02-01 15:37:00,45.0,8.5,30.20,NNW,335,9.0,20.0,22,0.00,,---,0.00,VWS V14.00,2013-02-01 20:37:00,
2013-02-01 15:42:00,45.2,10.6,30.21,NNW,339,15.0,20.0,24,0.00,,---,0.00,VWS V14.00,2013-02-01 20:42:00,
2013-02-01 15:47:00,45.1,10.5,30.21,NW,325,9.0,20.0,24,0.00,,---,0.00,VWS V14.00,2013-02-01 20:47:00,
2013-02-01 15:52:00,44.7,9.2,30.22,NW,325,11.0,20.0,23,0.00,,---,0.00,VWS V14.00,2013-02-01 20:52:00,
2013-02-01 15:57:00,44.6,10.1,30.22,NW,318,8.0,20.0,24,0.00,,---,0.00,VWS V14.00,2013-02-01 20:57:00,
2013-02-01 16:02:00,44.6,10.1,30.23,NW,308,18.0,19.0,24,0.00,,---,0.00,VWS V14.00,2013-02-01 21:02:00,
2013-02-01 16:07:00,44.5,10.0,30.23,NW,318,11.0,19.0,24,0.00,,---,0.00,VWS V14.00,2013-02-01 21:07:00,
2013-02-01 16:12:00,44.5,10.0,30.23,NW,325,13.0,19.0,24,0.00,,---,0.00,VWS V14.00,2013-02-01 21:12:00,
2013-02-01 16:17:00,44.2,10.6,30.23,WNW,292,7.0,19.0,25,0.00,,---,0.00,VWS V14.00,2013-02-01 21:17:00,
2013-02-01 16:22:00,44.0,8.6,30.23,North,356,9.0,19.0,23,0.00,,---,0.00,VWS V14.00,2013-02-01 21:22:00,
2013-02-01 16:27:00,43.7,9.3,30.24,WNW,301,8.0,19.0,24,0.00,,---,0.00,VWS V14.00,2013-02-01 21:27:00,
2013-02-01 16:32:00,43.5,8.2,30.24,NNW,330,12.0,19.0,23,0.00,,---,0.00,VWS V14.00,2013-02-01 21:32:00,
2013-02-01 16:37:00,43.4,9.9,30.24,NNW,345,7.0,19.0,25,0.00,,---,0.00,VWS V14.00,2013-02-01 21:37:00,
2013-02-01 16:42:00,43.6,10.1,30.24,NNW,330,5.0,19.0,25,0.00,,---,0.00,VWS V14.00,2013-02-01 21:42:00,
2013-02-01 16:47:00,43.3,8.0,30.25,NW,325,15.0,19.0,23,0.00,,---,0.00,VWS V14.00,2013-02-01 21:47:00,
2013-02-01 16:52:00,42.9,9.5,30.25,NW,325,9.0,19.0,25,0.00,,---,0.00,VWS V14.00,2013-02-01 21:52:00,
2013-02-01 16:57:00,42.8,9.4,30.25,NNW,330,4.0,19.0,25,0.00,,---,0.00,VWS V14.00,2013-02-01 21:57:00,
2013-02-01 17:02:00,42.7,10.2,30.25,NNW,335,8.0,9.0,26,0.00,,---,0.00,VWS V14.00,2013-02-01 22:02:00,
2013-02-01 17:07:00,42.4,10.0,30.26,WNW,303,12.0,15.0,26,0.00,,---,0.00,VWS V14.00,2013-02-01 22:07:00,
2013-02-01 17:12:00,42.0,9.6,30.26,NW,314,9.0,15.0,26,0.00,,---,0.00,VWS V14.00,2013-02-01 22:12:00,
2013-02-01 17:17:00,41.8,9.4,30.26,NNW,330,6.0,15.0,26,0.00,,---,0.00,VWS V14.00,2013-02-01 22:17:00,
2013-02-01 17:22:00,41.4,9.9,30.26,NNW,341,4.0,15.0,27,0.00,,---,0.00,VWS V14.00,2013-02-01 22:22:00,
2013-02-01 17:27:00,41.1,9.7,30.26,NNW,335,8.0,15.0,27,0.00,,---,0.00,VWS V14.00,2013-02-01 22:27:00,
2013-02-01 17:32:00,40.7,10.1,30.26,NNW,335,7.0,13.0,28,0.00,,---,0.00,VWS V14.00,2013-02-01 22:32:00,
2013-02-01 17:37:00,40.3,9.0,30.27,NW,315,6.0,13.0,27,0.00,,---,0.00,VWS V14.00,2013-02-01 22:37:00,
2013-02-01 17:42:00,39.8,9.4,30.27,NW,320,4.0,13.0,28,0.00,,---,0.00,VWS V14.00,2013-02-01 22:42:00,
2013-02-01 17:47:00,39.5,9.9,30.27,NW,314,3.0,13.0,29,0.00,,---,0.00,VWS V14.00,2013-02-01 22:47:00,
2013-02-01 17:52:00,39.2,10.4,30.27,NNW,330,5.0,13.0,30,0.00,,---,0.00,VWS V14.00,2013-02-01 22:52:00,
2013-02-01 17:57:00,38.8,10.8,30.28,NW,312,4.0,13.0,31,0.00,,---,0.00,VWS V14.00,2013-02-01 22:57:00,
2013-02-01 18:02:00,38.4,11.1,30.28,NNW,335,3.0,5.0,32,0.00,,---,0.00,VWS V14.00,2013-02-01 23:02:00,
2013-02-01 18:07:00,38.0,10.8,30.28,NNW,335,4.0,6.0,32,0.00,,---,0.00,VWS V14.00,2013-02-01 23:07:00,
2013-02-01 18:12:00,37.7,10.5,30.28,NNW,335,5.0,7.0,32,0.00,,---,0.00,VWS V14.00,2013-02-01 23:12:00,
2013-02-01 18:17:00,37.4,10.9,30.29,NW,320,3.0,8.0,33,0.00,,---,0.00,VWS V14.00,2013-02-01 23:17:00,
2013-02-01 18:22:00,37.1,10.7,30.29,NNW,345,2.0,9.0,33,0.00,,---,0.00,VWS V14.00,2013-02-01 23:22:00,
2013-02-01 18:27:00,36.9,10.5,30.29,NNW,335,4.0,9.0,33,0.00,,---,0.00,VWS V14.00,2013-02-01 23:27:00,
2013-02-01 18:32:00,36.8,10.4,30.30,North,355,7.0,7.0,33,0.00,,---,0.00,VWS V14.00,2013-02-01 23:32:00,
2013-02-01 18:37:00,36.7,10.3,30.30,North,359,4.0,7.0,33,0.00,,---,0.00,VWS V14.00,2013-02-01 23:37:00,
2013-02-01 18:42:00,36.6,10.2,30.30,North,356,4.0,7.0,33,0.00,,---,0.00,VWS V14.00,2013-02-01 23:42:00,
2013-02-01 18:47:00,36.3,10.0,30.30,NNW,335,5.0,7.0,33,0.00,,---,0.00,VWS V14.00,2013-02-01 23:47:00,
2013-02-01 18:52:00,36.0,10.4,30.31,NNW,339,4.0,7.0,34,0.00,,---,0.00,VWS V14.00,2013-02-01 23:52:00,
2013-02-01 18:57:00,35.7,10.1,30.31,NW,325,3.0,7.0,34,0.00,,---,0.00,VWS V14.00,2013-02-01 23:57:00,
2013-02-01 19:02:00,35.5,10.6,30.31,NNW,347,3.0,7.0,35,0.00,,---,0.00,VWS V14.00,2013-02-02 00:02:00,
2013-02-01 19:07:00,35.4,10.5,30.31,North,351,5.0,7.0,35,0.00,,---,0.00,VWS V14.00,2013-02-02 00:07:00,
2013-02-01 19:12:00,35.3,10.4,30.32,North,358,4.0,7.0,35,0.00,,---,0.00,VWS V14.00,2013-02-02 00:12:00,
2013-02-01 19:17:00,35.2,10.3,30.32,North,352,3.0,7.0,35,0.00,,---,0.00,VWS V14.00,2013-02-02 00:17:00,
2013-02-01 19:22:00,35.0,10.1,30.32,North,350,3.0,7.0,35,0.00,,---,0.00,VWS V14.00,2013-02-02 00:22:00,
2013-02-01 19:27:00,34.8,9.9,30.33,North,356,3.0,7.0,35,0.00,,---,0.00,VWS V14.00,2013-02-02 00:27:00,
2013-02-01 19:32:00,34.5,9.7,30.33,North,4,2.0,4.0,35,0.00,,---,0.00,VWS V14.00,2013-02-02 00:32:00,
2013-02-01 19:37:00,34.3,10.1,30.33,North,358,1.0,4.0,36,0.00,,---,0.00,VWS V14.00,2013-02-02 00:37:00,
2013-02-01 19:42:00,34.1,10.0,30.33,North,356,1.0,4.0,36,0.00,,---,0.00,VWS V14.00,2013-02-02 00:42:00,
2013-02-01 19:47:00,33.8,10.3,30.33,NNW,330,3.0,4.0,37,0.00,,---,0.00,VWS V14.00,2013-02-02 00:47:00,
2013-02-01 19:52:00,33.7,10.2,30.33,NW,325,4.0,4.0,37,0.00,,---,0.00,VWS V14.00,2013-02-02 00:52:00,
2013-02-01 19:57:00,33.5,10.0,30.33,NNW,340,5.0,5.0,37,0.00,,---,0.00,VWS V14.00,2013-02-02 00:57:00,
2013-02-01 20:02:00,33.4,10.5,30.34,NNW,340,1.0,3.0,38,0.00,,---,0.00,VWS V14.00,2013-02-02 01:02:00,
2013-02-01 20:07:00,33.2,10.9,30.34,NNW,340,1.0,3.0,39,0.00,,---,0.00,VWS V14.00,2013-02-02 01:07:00,
2013-02-01 20:12:00,32.9,10.7,30.34,NNW,340,0.0,3.0,39,0.00,,---,0.00,VWS V14.00,2013-02-02 01:12:00,
2013-02-01 20:17:00,32.7,11.1,30.34,NNW,340,0.0,3.0,40,0.00,,---,0.00,VWS V14.00,2013-02-02 01:17:00,
2013-02-01 20:22:00,32.5,10.9,30.34,NNW,340,0.0,3.0,40,0.00,,---,0.00,VWS V14.00,2013-02-02 01:22:00,
2013-02-01 20:27:00,32.3,11.8,30.34,NNW,340,0.0,3.0,42,0.00,,---,0.00,VWS V14.00,2013-02-02 01:27:00,
2013-02-01 20:32:00,31.8,12.4,30.34,NNW,340,0.0,1.0,44,0.00,,---,0.00,VWS V14.00,2013-02-02 01:32:00,
2013-02-01 20:37:00,31.4,11.5,30.35,NNW,340,0.0,1.0,43,0.00,,---,0.00,VWS V14.00,2013-02-02 01:37:00,
2013-02-01 20:42:00,31.2,12.4,30.35,NNW,340,0.0,1.0,45,0.00,,---,0.00,VWS V14.00,2013-02-02 01:42:00,
2013-02-01 20:47:00,31.0,13.1,30.35,NNW,340,0.0,1.0,47,0.00,,---,0.00,VWS V14.00,2013-02-02 01:47:00,
2013-02-01 20:52:00,30.3,18.1,30.35,NNW,340,0.0,1.0,60,0.00,,---,0.00,VWS V14.00,2013-02-02 01:52:00,
2013-02-01 20:57:00,28.7,16.6,30.36,NNW,340,0.0,1.0,60,0.00,,---,0.00,VWS V14.00,2013-02-02 01:57:00,
2013-02-01 21:02:00,27.8,15.7,30.36,NNW,340,0.0,0.0,60,0.00,,---,0.00,VWS V14.00,2013-02-02 02:02:00,
2013-02-01 21:07:00,27.7,16.8,30.36,NNW,340,0.0,0.0,63,0.00,,---,0.00,VWS V14.00,2013-02-02 02:07:00,
2013-02-01 21:12:00,27.6,17.4,30.36,NNW,340,0.0,0.0,65,0.00,,---,0.00,VWS V14.00,2013-02-02 02:12:00,
2013-02-01 21:17:00,27.3,17.1,30.36,NNW,340,0.0,0.0,65,0.00,,---,0.00,VWS V14.00,2013-02-02 02:17:00,
2013-02-01 21:22:00,26.9,16.7,30.37,NNW,340,0.0,0.0,65,0.00,,---,0.00,VWS V14.00,2013-02-02 02:22:00,
2013-02-01 21:27:00,26.8,16.6,30.37,NNW,340,0.0,0.0,65,0.00,,---,0.00,VWS V14.00,2013-02-02 02:27:00,
2013-02-01 21:32:00,27.0,17.5,30.37,NNW,340,0.0,0.0,67,0.00,,---,0.00,VWS V14.00,2013-02-02 02:32:00,
2013-02-01 21:37:00,27.2,18.4,30.37,NNW,340,1.0,1.0,69,0.00,,---,0.00,VWS V14.00,2013-02-02 02:37:00,
2013-02-01 21:42:00,26.4,17.6,30.37,NNW,340,0.0,1.0,69,0.00,,---,0.00,VWS V14.00,2013-02-02 02:42:00,
2013-02-01 21:47:00,26.1,17.7,30.38,NNW,340,0.0,1.0,70,0.00,,---,0.00,VWS V14.00,2013-02-02 02:47:00,
2013-02-01 21:52:00,26.0,17.2,30.38,NNW,340,0.0,1.0,69,0.00,,---,0.00,VWS V14.00,2013-02-02 02:52:00,
2013-02-01 21:57:00,26.1,17.7,30.38,NNW,340,0.0,1.0,70,0.00,,---,0.00,VWS V14.00,2013-02-02 02:57:00,
2013-02-01 22:02:00,26.2,17.8,30.38,NNW,340,0.0,0.0,70,0.00,,---,0.00,VWS V14.00,2013-02-02 03:02:00,
2013-02-01 22:07:00,26.2,18.4,30.38,NNW,340,0.0,0.0,72,0.00,,---,0.00,VWS V14.00,2013-02-02 03:07:00,
2013-02-01 22:12:00,25.8,18.0,30.38,NNW,340,0.0,0.0,72,0.00,,---,0.00,VWS V14.00,2013-02-02 03:12:00,
2013-02-01 22:17:00,25.6,18.2,30.38,NNW,340,0.0,1.0,73,0.00,,---,0.00,VWS V14.00,2013-02-02 03:17:00,
2013-02-01 22:22:00,25.8,18.7,30.38,NNW,340,0.0,1.0,74,0.00,,---,0.00,VWS V14.00,2013-02-02 03:22:00,
2013-02-01 22:27:00,26.0,18.2,30.38,NNW,340,0.0,1.0,72,0.00,,---,0.00,VWS V14.00,2013-02-02 03:27:00,
2013-02-01 22:32:00,26.1,18.3,30.38,NNW,340,1.0,1.0,72,0.00,,---,0.00,VWS V14.00,2013-02-02 03:32:00,
2013-02-01 22:37:00,26.3,18.8,30.38,NNW,340,0.0,1.0,73,0.00,,---,0.00,VWS V14.00,2013-02-02 03:37:00,
2013-02-01 22:42:00,26.4,19.2,30.39,NNW,340,0.0,1.0,74,0.00,,---,0.00,VWS V14.00,2013-02-02 03:42:00,
2013-02-01 22:47:00,26.0,19.2,30.39,NNW,340,0.0,1.0,75,0.00,,---,0.00,VWS V14.00,2013-02-02 03:47:00,
2013-02-01 22:52:00,25.3,18.8,30.39,NNW,340,0.0,1.0,76,0.00,,---,0.00,VWS V14.00,2013-02-02 03:52:00,
2013-02-01 22:57:00,24.8,18.3,30.39,NNW,340,0.0,1.0,76,0.00,,---,0.00,VWS V14.00,2013-02-02 03:57:00,
2013-02-01 23:02:00,24.5,18.6,30.40,NNW,340,0.0,0.0,78,0.00,,---,0.00,VWS V14.00,2013-02-02 04:02:00,
2013-02-01 23:07:00,24.2,18.3,30.40,NNW,340,0.0,0.0,78,0.00,,---,0.00,VWS V14.00,2013-02-02 04:07:00,
2013-02-01 23:12:00,23.5,17.7,30.39,NNW,340,0.0,1.0,78,0.00,,---,0.00,VWS V14.00,2013-02-02 04:12:00,
2013-02-01 23:17:00,23.0,17.5,30.40,NNW,340,0.0,1.0,79,0.00,,---,0.00,VWS V14.00,2013-02-02 04:17:00,
2013-02-01 23:22:00,22.8,17.6,30.39,NNW,340,0.0,1.0,80,0.00,,---,0.00,VWS V14.00,2013-02-02 04:22:00,
2013-02-01 23:27:00,22.9,17.4,30.39,NNW,340,0.0,1.0,79,0.00,,---,0.00,VWS V14.00,2013-02-02 04:27:00,
2013-02-01 23:32:00,23.3,17.8,30.39,NNW,340,0.0,0.0,79,0.00,,---,0.00,VWS V14.00,2013-02-02 04:32:00,
2013-02-01 23:37:00,23.8,18.0,30.40,NNW,340,0.0,0.0,78,0.00,,---,0.00,VWS V14.00,2013-02-02 04:37:00,
2013-02-01 23:42:00,23.9,18.4,30.40,NNW,340,1.0,2.0,79,0.00,,---,0.00,VWS V14.00,2013-02-02 04:42:00,
2013-02-01 23:47:00,24.2,18.0,30.39,NNW,340,1.0,2.0,77,0.00,,---,0.00,VWS V14.00,2013-02-02 04:47:00,
2013-02-01 23:52:00,24.3,18.1,30.39,NNW,340,0.0,2.0,77,0.00,,---,0.00,VWS V14.00,2013-02-02 04:52:00,
2013-02-01 23:57:00,24.5,18.6,30.39,NNW,340,1.0,3.0,78,0.00,,---,0.00,VWS V14.00,2013-02-02 04:57:00,